Location: Grambois
(43.7619°N, 5.5873°E)
Time: 08:57:14
(UTC+00:00)

BREEZE-M DEB (TANK) - Pass Details

Date: 01 October 2020
Orbit: 333 x 12040 km, 49.7° (Epoch: 22 October)

Event Time Altitude Azimuth Distance (km) Brightness Sun altitude
Rises 03:03:34 0° 187° (S) 13,997 8.9 -27.6°
Reaches altitude 10° 03:15:47 10° 183° (S) 14,250 9.0 -25.6°
Maximum altitude 04:46:36 60° 123° (ESE) 10,256 8.7 -9.7°
Drops below altitude 10° 05:24:44 10° 58° (ENE) 7,677 8.9 -2.8°
Sets 05:28:33 0° 55° (NE) 7,871 8.9 -2.1°
